TimeCST,TemperatureF,Dew PointF,Humidity,Sea Level PressureIn,VisibilityMPH,Wind Direction,Wind SpeedMPH,Gust SpeedMPH,PrecipitationIn,Events,Conditions,WindDirDegrees,DateUTC
12:56 AM,68.9,59.9,73,30.07,10.0,South,4.6,-,N/A,,Clear,170,2012-11-05 06:56:00
1:56 AM,68.0,59.9,75,30.06,10.0,ESE,4.6,-,N/A,,Clear,110,2012-11-05 07:56:00
2:56 AM,65.8,59.9,81,30.04,10.0,East,3.5,-,N/A,,Clear,80,2012-11-05 08:56:00
3:56 AM,64.9,59.9,84,30.03,10.0,East,4.6,-,N/A,,Clear,90,2012-11-05 09:56:00
4:56 AM,65.8,59.9,81,30.03,10.0,Calm,Calm,-,N/A,,Clear,0,2012-11-05 10:56:00
5:56 AM,63.9,59.0,84,30.03,10.0,Calm,Calm,-,N/A,,Clear,0,2012-11-05 11:56:00
6:56 AM,63.9,59.9,87,30.03,10.0,Calm,Calm,-,N/A,,Clear,0,2012-11-05 12:56:00
7:56 AM,68.0,61.9,81,30.05,10.0,Calm,Calm,-,N/A,,Clear,0,2012-11-05 13:56:00
8:56 AM,73.9,61.9,66,30.08,10.0,WSW,4.6,-,N/A,,Clear,240,2012-11-05 14:56:00
9:56 AM,77.9,63.0,60,30.08,10.0,WNW,4.6,-,N/A,,Clear,290,2012-11-05 15:56:00
10:56 AM,81.9,63.9,54,30.07,10.0,Variable,4.6,-,N/A,,Clear,0,2012-11-05 16:56:00
11:56 AM,83.8,63.9,51,30.05,10.0,South,5.8,-,N/A,,Clear,180,2012-11-05 17:56:00
12:56 PM,86.9,63.0,45,30.01,10.0,WSW,6.9,-,N/A,,Clear,240,2012-11-05 18:56:00
1:56 PM,88.9,63.0,42,29.97,10.0,Variable,3.5,-,0.00,,Clear,0,2012-11-05 19:56:00
2:56 PM,88.0,61.9,41,29.95,10.0,Calm,Calm,-,N/A,,Clear,0,2012-11-05 20:56:00
3:56 PM,88.9,61.0,39,29.94,10.0,Calm,Calm,-,N/A,,Clear,0,2012-11-05 21:56:00
4:56 PM,88.9,59.0,36,29.94,10.0,South,4.6,-,N/A,,Clear,180,2012-11-05 22:56:00
5:56 PM,86.0,59.0,40,29.95,10.0,Calm,Calm,-,N/A,,Clear,0,2012-11-05 23:56:00
6:56 PM,82.9,57.9,42,29.97,10.0,East,3.5,-,N/A,,Clear,80,2012-11-06 00:56:00
7:56 PM,77.9,57.9,50,29.99,10.0,Calm,Calm,-,N/A,,Clear,0,2012-11-06 01:56:00
8:56 PM,75.9,59.0,56,29.99,10.0,SSE,3.5,-,N/A,,Clear,150,2012-11-06 02:56:00
9:56 PM,74.8,59.0,58,30.00,10.0,Calm,Calm,-,N/A,,Clear,0,2012-11-06 03:56:00
10:56 PM,72.9,57.9,59,30.00,10.0,ESE,4.6,-,N/A,,Clear,120,2012-11-06 04:56:00
11:56 PM,72.9,59.9,64,30.00,10.0,South,5.8,-,N/A,,Clear,190,2012-11-06 05:56:00